Theta_e
291 289 287 290 289 287 286 285 285 287 291 290 289 290 293 294 291 292 294 294 295 295 299 297 296 297 299 300 300 301 302 303 303 303 302 301 299 298 297 298 303 306 305 304
288 286 292 292 291 289 287 285 285 288 289 290 289 288 291 294 292 295 297 298 296 297 294 294 294 296 298 299 300 299 302 302 302 305 302 300 297 294 294 294 295 298 300 299
288 290 292 292 288 288 286 285 285 287 288 288 286 286 288 292 294 296 296 298 300 297 295 293 293 295 297 298 300 299 302 302 302 300 296 294 294 293 292 292 292 292 294 294
289 292 291 289 288 290 284 289 288 287 286 282 286 282 287 291 293 293 295 297 295 295 294 293 293 294 296 299 301 300 302 302 302 298 298 298 298 296 294 292 291 290 291 290
288 289 288 288 289 291 287 289 287 286 284 283 283 282 286 288 289 293 298 297 295 294 294 293 293 295 296 298 300 299 301 302 299 298 299 299 299 294 292 290 288 288 288 288
289 290 291 291 290 291 290 288 286 284 283 279 283 284 286 287 290 292 294 295 294 294 292 292 292 293 295 298 298 299 300 300 297 297 298 300 295 291 289 288 288 286 286 286
287 288 290 291 288 289 288 287 281 278 277 280 281 281 289 291 291 292 294 294 293 293 292 290 290 292 294 296 297 298 299 298 296 296 296 296 294 292 291 289 288 285 284 284
285 283 288 291 291 288 286 286 281 274 275 279 281 279 286 290 292 292 292 292 292 293 291 289 290 291 293 296 297 298 298 295 295 295 295 293 292 292 291 289 288 287 285 284
283 283 287 288 288 292 285 284 287 282 270 275 282 284 289 290 290 292 293 291 291 291 290 289 289 291 292 295 298 298 297 295 294 294 292 291 291 289 288 287 286 285 284 283
289 283 285 286 288 288 288 289 283 281 274 272 280 281 285 289 290 291 290 291 291 290 288 288 289 290 292 295 298 297 296 293 294 293 291 290 289 289 287 285 283 283 283 283
290 287 282 285 284 284 285 284 283 284 281 276 274 283 287 290 291 291 291 291 291 290 288 288 288 289 291 294 294 293 293 292 292 291 290 289 288 287 285 285 283 283 282 282
292 288 280 282 285 286 285 286 286 281 277 279 278 285 290 290 291 291 292 291 290 289 288 288 288 289 290 291 291 291 292 291 291 290 289 288 287 285 284 284 283 283 282 282
292 287 282 283 285 286 284 286 290 286 283 280 280 285 288 288 289 290 290 290 289 288 287 287 287 287 289 290 290 290 290 290 290 289 288 286 285 284 284 283 282 282 281 281
296 288 287 285 285 286 282 284 287 289 283 284 285 289 289 288 289 291 290 290 289 288 287 286 286 286 287 289 290 290 289 289 288 287 287 285 284 284 284 282 281 281 281 280
295 286 288 289 288 287 286 285 287 286 288 285 289 288 292 294 293 295 293 290 289 288 286 285 286 286 286 287 288 289 288 287 287 287 286 285 284 285 283 282 281 280 280 279
294 285 288 288 290 287 284 285 287 288 289 289 290 289 297 294 296 294 295 295 290 289 289 288 287 286 286 287 287 287 287 286 286 286 286 285 284 283 282 281 280 279 279 279
289 285 285 284 287 285 282 287 286 287 290 289 286 291 297 291 294 295 294 293 293 291 292 291 288 287 287 287 288 286 287 286 285 285 285 284 283 282 281 280 279 278 278 278
285 285 285 284 285 277 288 291 293 289 291 290 290 293 294 294 294 294 296 293 293 293 292 291 291 289 288 288 287 287 286 284 284 284 283 283 282 281 280 279 279 279 278 278
292 286 283 282 282 285 286 285 286 288 289 294 292 294 296 295 289 294 292 294 296 295 294 293 292 290 287 286 286 285 283 283 283 283 282 282 282 281 280 279 279 279 278 278
287 289 285 283 280 278 282 280 286 290 286 294 293 294 294 291 286 293 292 291 291 291 290 290 289 288 285 283 284 283 282 282 282 283 282 282 281 281 279 280 279 279 279 278
281 283 281 282 281 283 286 282 286 283 285 281 290 294 294 291 293 291 288 288 288 287 286 285 286 285 283 282 282 281 281 281 282 282 282 281 282 281 280 280 279 279 278 278
279 280 280 282 280 278 280 282 283 283 284 280 284 286 286 287 289 288 288 287 286 286 284 282 280 279 280 281 282 280 280 281 281 281 280 280 280 280 280 279 279 278 278 277
277 282 280 282 280 284 282 283 286 285 285 287 285 286 287 287 286 287 286 286 286 285 282 278 278 277 276 279 280 279 279 280 280 279 279 279 280 280 280 278 278 277 278 277
279 284 283 281 284 286 288 288 287 289 288 287 286 286 287 286 286 286 282 283 283 278 278 275 276 275 275 274 277 278 279 281 281 281 280 281 280 278 278 278 278 277 277 276
280 281 277 279 283 285 287 287 289 289 289 288 288 286 287 287 285 283 282 280 282 280 276 276 278 277 276 275 275 277 279 281 281 282 281 280 280 279 278 279 278 278 278 279
280 279 278 278 285 285 285 288 288 287 287 287 286 283 281 284 285 283 282 282 280 280 276 276 275 275 273 275 275 275 279 281 281 279 280 281 281 280 279 279 279 282 281 282
Wind_Speed
2 4 8 17 8 3 6 5 5 5 4 4 10 11 15 8 6 13 15 15 17 19 16 8 9 10 9 8 10 10 10 9 8 6 4 3 3 2 3 3 3 6 7 10
4 8 13 5 7 4 4 4 6 6 3 6 8 13 13 13 11 15 19 18 19 16 6 7 10 12 14 13 13 11 12 13 9 7 4 3 4 3 3 3 4 4 6 9
10 5 6 9 5 6 5 6 5 8 3 3 5 9 8 9 12 15 18 23 19 12 12 10 13 16 14 15 17 15 14 14 11 10 8 6 6 5 3 3 3 2 6 8
7 3 6 4 5 9 6 9 5 4 2 5 1 10 6 8 9 7 16 15 12 12 7 8 13 12 16 16 12 14 13 13 10 12 9 11 8 7 5 4 4 4 5 7
9 9 6 6 8 8 7 5 6 3 3 4 2 4 4 3 6 15 20 12 6 8 10 11 14 14 13 12 14 13 14 14 12 12 10 8 7 4 7 7 8 5 4 5
3 1 6 7 3 4 9 6 6 4 3 5 11 9 5 7 9 8 7 7 1 5 6 5 5 7 10 11 13 13 14 13 12 11 10 11 10 10 8 8 7 5 4 5
3 5 3 4 7 4 2 6 2 4 1 10 2 5 13 9 8 7 8 7 6 5 4 6 8 9 10 13 13 13 14 12 12 11 11 10 10 11 13 12 8 9 6 4
11 10 12 8 10 10 9 9 8 8 5 6 1 10 9 11 10 7 7 7 8 7 5 6 6 8 11 14 15 15 15 13 12 11 10 8 9 6 7 9 9 8 7 6
7 8 2 3 2 10 7 8 3 5 2 2 7 8 9 11 13 9 9 8 8 7 5 5 5 7 8 12 16 14 14 12 13 12 9 8 9 9 9 9 8 5 6 6
7 3 0 3 3 2 5 8 4 2 3 6 6 7 9 5 6 4 1 5 6 3 3 4 5 6 6 9 14 12 13 12 12 12 11 10 11 11 10 9 10 10 9 9
5 4 1 3 8 12 4 4 1 5 5 6 3 10 9 11 7 7 4 5 6 6 5 5 6 6 6 6 9 10 11 12 12 12 11 11 10 11 11 11 11 12 13 13
11 6 6 9 3 3 2 9 7 7 6 5 3 20 5 7 8 7 6 4 5 3 2 2 3 4 7 8 8 10 11 11 12 11 10 9 9 9 10 10 11 11 12 11
10 5 3 2 0 1 6 7 12 5 4 10 8 14 1 4 6 8 6 7 5 6 4 4 5 7 9 9 10 11 11 12 12 13 14 13 12 11 11 10 10 11 12 12
11 6 13 19 4 9 8 9 12 18 7 9 20 23 8 4 7 7 6 6 7 6 7 7 6 8 9 10 12 12 12 11 11 11 12 12 12 14 14 13 13 13 12 13
5 7 8 12 4 4 6 11 19 20 29 15 29 20 29 14 10 13 6 8 8 7 8 10 10 10 10 10 10 10 10 11 13 14 14 14 13 12 11 12 12 12 12 12
4 4 11 15 15 9 7 10 20 29 28 23 24 23 17 7 9 8 13 11 9 9 10 11 10 10 13 15 15 14 14 14 13 14 14 14 14 14 13 13 14 14 13 13
4 3 3 9 7 10 10 32 12 15 20 24 23 34 22 6 11 14 13 10 12 10 13 12 13 14 13 15 15 18 17 15 16 15 14 15 15 16 16 15 15 16 16 14
5 2 2 9 6 11 13 9 24 21 14 15 15 26 22 15 8 12 14 5 10 12 9 10 10 11 13 11 13 10 12 14 15 14 13 13 14 15 15 16 16 15 14 15
17 7 4 5 5 5 9 5 8 14 23 23 28 29 30 14 1 21 8 12 16 12 10 9 7 7 7 11 11 11 12 13 14 15 14 15 15 15 15 15 15 13 13 12
6 13 10 6 6 7 7 3 5 6 15 20 17 25 25 5 8 22 7 7 9 6 5 5 5 4 6 6 11 13 12 13 14 14 15 14 14 15 15 15 15 13 13 12
3 3 14 14 11 4 8 4 2 8 9 1 11 21 20 15 12 3 3 3 3 2 2 1 4 5 5 7 9 10 10 12 8 8 10 12 12 13 13 14 13 13 11 10
5 6 5 4 6 11 2 2 8 3 7 3 3 4 6 6 5 5 6 3 3 4 3 2 4 4 5 8 11 10 10 8 10 12 12 12 11 10 11 14 12 13 14 13
10 7 4 5 4 4 5 7 6 2 3 8 6 7 6 7 5 6 6 7 6 6 5 3 5 5 1 4 7 9 7 11 11 11 11 11 11 11 12 13 13 11 14 12
6 4 5 1 5 6 6 4 5 3 7 10 7 8 7 7 7 7 4 3 3 0 0 1 4 4 3 1 4 5 10 11 12 12 12 11 11 11 10 8 9 9 10 10
1 1 3 7 7 6 11 9 11 8 7 11 6 6 6 7 8 3 5 4 5 3 0 2 5 5 5 5 4 5 8 10 11 11 10 10 8 10 10 9 10 10 11 13
5 9 10 12 13 6 6 5 4 8 7 7 6 8 5 8 8 2 5 5 3 6 5 4 4 6 4 5 5 5 7 9 11 10 8 8 8 8 8 8 7 15 13 19
Wind_Direction
16 110 187 215 194 139 139 182 204 240 230 176 228 244 253 260 228 252 254 246 239 235 242 200 185 178 173 177 174 176 169 167 152 146 148 141 150 132 90 71 78 120 140 135
59 225 222 112 155 160 160 188 244 280 243 188 274 256 248 253 235 227 245 250 243 242 197 186 182 182 185 179 183 177 179 172 172 161 148 137 141 98 105 115 83 121 136 137
176 211 150 147 158 167 214 192 209 227 326 236 311 275 235 262 250 254 247 248 257 236 226 200 192 196 181 181 184 184 179 172 176 148 129 114 101 103 115 133 117 126 146 143
241 223 143 170 190 154 234 203 177 181 84 249 10 285 251 230 241 252 256 248 239 232 227 202 198 190 193 195 177 181 176 173 172 162 170 173 169 162 174 153 145 154 130 146
233 171 168 182 202 166 227 124 164 137 170 3 289 283 207 92 259 255 255 261 250 238 222 213 199 202 193 175 177 179 176 174 171 176 180 179 176 137 140 139 142 132 112 112
228 124 172 200 93 145 146 80 55 55 93 269 200 193 178 184 201 257 264 278 313 309 260 237 185 159 171 169 168 173 176 178 171 175 179 187 164 150 144 151 150 156 144 133
132 209 193 150 90 45 140 114 299 326 2 241 1 226 260 276 235 235 244 261 289 278 228 201 177 171 165 175 174 172 175 174 172 174 178 177 169 167 164 166 165 153 161 160
190 246 166 187 185 169 198 165 168 208 204 267 152 238 249 234 271 248 284 280 278 281 243 222 196 174 174 179 179 176 177 169 172 175 177 165 160 166 168 171 160 167 170 155
162 260 223 137 134 152 195 210 171 89 84 17 222 282 282 261 280 302 292 307 290 273 263 218 179 177 182 185 188 179 174 168 170 173 161 159 161 158 160 153 151 144 123 127
212 257 213 147 117 29 161 168 96 352 185 255 271 268 225 246 225 202 191 295 307 295 221 194 182 181 185 192 190 175 174 170 167 167 166 165 165 161 156 149 143 138 129 146
143 164 68 111 209 170 147 195 166 127 157 185 290 262 217 222 187 177 225 288 306 290 204 200 182 168 173 184 184 171 166 164 166 167 166 163 165 160 157 159 155 155 149 152
194 157 177 199 228 233 251 198 159 145 219 237 165 262 183 198 169 182 262 278 268 245 180 184 185 168 171 179 175 180 174 169 170 164 162 164 158 158 160 160 160 155 156 155
173 188 178 314 335 292 213 202 197 120 83 204 162 254 115 175 221 239 209 220 230 145 140 177 176 192 191 189 185 178 179 176 171 166 164 163 165 165 168 165 160 161 159 154
178 175 211 222 188 139 195 191 203 203 208 208 231 248 223 198 218 223 193 206 194 180 183 196 206 208 205 197 197 190 184 176 169 167 169 171 173 173 173 166 164 160 166 157
208 229 208 244 205 172 190 198 201 204 221 201 250 236 251 227 247 244 190 209 199 197 211 211 210 204 200 199 200 195 188 172 169 175 177 180 173 173 167 162 160 158 162 163
277 249 202 232 239 203 215 223 212 211 221 231 249 257 239 194 236 249 248 257 234 219 226 223 215 198 204 202 198 191 188 183 176 183 186 174 169 167 168 164 163 161 163 163
247 211 196 238 191 188 230 230 193 217 221 217 231 241 258 215 212 230 241 213 234 220 226 226 214 211 209 206 193 200 191 174 183 186 182 175 170 169 168 166 164 169 168 166
217 230 244 266 198 223 238 199 218 216 225 220 265 259 260 240 222 229 232 196 228 234 226 223 225 217 210 198 195 183 177 185 183 183 178 172 170 171 167 167 173 173 169 171
207 192 244 250 237 293 302 246 164 183 240 222 227 249 259 257 69 271 174 204 231 232 230 233 222 212 179 182 180 167 171 177 181 185 179 175 171 166 167 175 174 165 164 167
219 221 222 245 252 244 242 316 278 126 244 235 217 242 251 221 232 259 165 204 238 238 239 251 250 228 192 176 160 164 175 178 193 184 177 174 168 168 173 172 168 164 164 163
132 199 224 237 247 242 252 258 189 180 242 274 191 222 239 237 226 240 138 165 174 164 237 273 195 205 197 151 152 159 160 187 173 161 156 163 172 167 166 160 161 156 154 158
205 195 206 216 246 261 22 60 173 284 316 291 309 294 277 253 224 220 219 203 192 193 154 120 149 157 156 154 153 151 168 152 149 152 152 158 159 153 159 157 156 160 156 167
243 210 245 228 239 261 203 190 252 257 297 317 330 332 323 291 243 237 239 216 203 197 179 177 152 134 76 137 145 147 155 143 142 142 148 146 149 153 158 159 162 165 171 178
253 167 229 323 225 221 237 235 198 206 253 271 271 293 309 290 298 275 265 228 207 312 218 125 112 121 166 148 126 143 149 146 146 149 150 152 153 153 159 162 163 171 179 180
219 341 247 265 286 305 278 240 247 249 236 261 243 200 245 278 282 216 265 236 209 211 111 149 177 176 167 135 127 142 144 148 143 146 149 155 157 164 164 169 172 182 192 188
202 251 277 273 280 252 260 287 293 233 236 270 268 272 242 213 239 242 258 240 217 189 164 173 174 146 147 146 156 154 147 148 143 142 155 160 159 169 165 169 167 202 197 202